Regional Weather Roundup
Issued by NWS

Home | Current Version | Previous Version | Graphics & Text | Print | Product List | Glossary On
Versions: 1 2 3 4 5 6 7 8 9 10 11 12 13 14 15 16 17 18 19 20 21 22 23 24 25 26 27 28 29 30 31 32 33 34 35 36 37 38 39 40 41 42 43 44 45 46 47 48 49 50
000
ASUS43 KLSX 261910
RWRMO

WEATHER SUMMARY FOR MISSOURI
NATIONAL WEATHER SERVICE SPRINGFIELD MO
200 PM CDT THU APR 26 2018

NOTE: "FAIR" INDICATES FEW OR NO CLOUDS BELOW 12,000 FEET WITH NO
       SIGNIFICANT WEATHER AND/OR OBSTRUCTIONS TO VISIBILITY.
       CURRENT SKY AND/OR WEATHER CONDITIONS ARE NOT AVAILABLE FOR
       CHILLICOTHE AND FARMINGTON.

MOZ001>031-035>038-043-044-053-054-262000-
...NORTHERN AND WESTERN MISSOURI...

CITY           SKY/WX    TMP DP  RH WIND       PRES   REMARKS
KANSAS CTY INT CLOUDY    63  45  51 W6        29.99F
KANSAS C DTWN  MOSUNNY   64  44  48 W5        29.98F
LEE`S SUMMIT   CLOUDY    63  43  48 SW10      29.98F
ST JOSEPH      PTSUNNY   66  46  48 W13       29.98F
CHILLICOTHE      N/A     67  40  37 VRB6      29.97F
KIRKSVILLE     CLOUDY    67  36  31 W7G20     29.95F

$$
MOZ066>068-077>081-088>096-101>105-262000-
...SOUTHWEST MISSOURI...

CITY           SKY/WX    TMP DP  RH WIND       PRES   REMARKS
SPRINGFIELD    CLOUDY    59  47  64 CALM      29.98F
JOPLIN         PTSUNNY   58  49  72 NW8       30.02F
BRANSON        PTSUNNY   55  48  76 NW5       29.99F

$$
MOZ032>034-039>042-045>050-055>058-069>072-262000-
...CENTRAL MISSOURI...

CITY           SKY/WX    TMP DP  RH WIND       PRES   REMARKS
COLUMBIA       CLOUDY    66  43  43 MISG      29.95F
JEFFERSON CITY CLOUDY    65  43  44 CALM      29.95F
ROLLA          PTSUNNY   62  45  53 CALM      29.96F
SEDALIA        CLOUDY    66  44  45 N8        29.98F
WHITEMAN AFB   PTSUNNY   64  45  48 W9        29.94F
WARRENSBURG    CLOUDY    63  43  48 SW6       29.98F
OSAGE BEACH    CLOUDY    63  47  55 N6        29.97F

$$
MOZ051-052-059>065-262000-
...EAST CENTRAL MISSOURI...

CITY           SKY/WX    TMP DP  RH WIND       PRES   REMARKS
ST LOUIS INTL  PTSUNNY   69  41  36 NW6       29.93F
SPIRIT OF STL  MOSUNNY   68  43  40 VRB3      29.92F
ST CHARLES     SUNNY     68  41  37 CALM      29.92F

$$
MOZ072>076-082>087-097>100-106>115-262000-
...SOUTH CENTRAL AND SOUTHEAST MISSOURI...

CITY           SKY/WX    TMP DP  RH WIND       PRES   REMARKS
CAPE GIRARDEAU CLOUDY    58  45  62 NW10      29.93S
FARMINGTON     MOSUNNY   60  40  47 CALM      29.95F
POPLAR BLUFF   CLOUDY    61  47  59 N10       29.93F
WEST PLAINS    SUNNY     62  47  57 NE9       29.96F

$$




USA.gov is the U.S. government's official web portal to all federal, state and local government web resources and services.